Miscellaneous Local Product
Issued by NWS Hastings, NE

Home | Current Version | Previous Version | Graphics & Text | Print | Product List | Glossary On
Versions: 1 2 3 4 5 6 7 8 9 10 11 12 13 14 15 16 17 18 19 20 21 22 23 24 25 26 27 28 29 30 31 32 33 34 35 36 37 38 39 40 41 42 43 44 45 46 47 48 49 50
026
AXUS43 KGID 270502
MISGRI

GID CWA HOURLY WEATHER ROUNDUP
NATIONAL WEATHER SERVICE HASTINGS NE
1200 AM CDT SAT AUG 27 2016

NOTE: "FAIR" INDICATES FEW OR NO CLOUDS BELOW 12,000 FEET WITH NO
SIGNIFICANT WEATHER AND/OR OBSTRUCTIONS TO VISIBILITY.

...SOUTH CENTRAL NEBRASKA...

CITY           SKY/WX    TMP DP  RH WIND       PRES   REMARKS
GRAND ISLAND   CLOUDY    64  63  96 SE7       30.05S
HASTINGS       LGT RAIN  64  63  96 SE5       30.06F FOG
KEARNEY        CLOUDY   N/A N/A N/A SE20G29   29.96F
ORD            CLOUDY    64  61  90 S3        30.06R
YORK           CLOUDY    64  64 100 SE6       30.05S FOG
AURORA         LGT RAIN  64  64 100 SE6       30.05F
LEXINGTON      MOCLDY    60  57  87 W6        30.04F
HOLDREGE       CLOUDY    64  61  91 SE7       30.01F
HEBRON         CLOUDY    65  64  97 CALM      30.04R FOG

...NEBRASKA PANHANDLE...

CITY           SKY/WX    TMP DP  RH WIND       PRES   REMARKS
CHADRON        HVY RAIN  55  49  80 NW8G37    30.11R
ALLIANCE       CLEAR     53  51  93 E3        30.08R
SCOTTSBLUFF    CLOUDY    58  55  90 SE9       30.07S
SIDNEY         CLOUDY    55  54  96 SW9       30.11S FOG

...WESTERN AND NORTH CENTRAL NEBRASKA...

CITY           SKY/WX    TMP DP  RH WIND       PRES   REMARKS
VALENTINE      CLOUDY    56  55  97 N3        30.09R
AINSWORTH      CLOUDY    59  57  92 SE5       30.08R
ONEILL         CLOUDY    64  60  86 SE7       30.06S
BROKEN BOW     CLOUDY    62  61  96 E6        30.03F
IMPERIAL       PTCLDY    52  51  97 E3        30.08S FOG
NORTH PLATTE   CLEAR     55  53  93 W6        30.06R FOG
MCCOOK         CLEAR     54  53  97 W5        30.05F

...EASTERN NEBRASKA...

CITY           SKY/WX    TMP DP  RH WIND       PRES   REMARKS
NORFOLK        CLOUDY    62  60  93 E6        30.05S
SO SIOUX CITY  CLOUDY    65  61  87 SE5       30.06F
TEKAMAH        CLOUDY    65  63  93 CALM      30.05F
COLUMBUS       CLOUDY    64  55  72 E6        30.06S
ALBION         LGT RAIN  63  61  94 SE6       30.06R
OMAHA EPPLEY   MOCLDY    66  62  87 SE3       30.03F
OFFUTT AFB     PTCLDY    65  65  99 E6        30.02F
MILLARD        CLOUDY    67  64  89 CALM      30.03F
LINCOLN        CLOUDY    68  65  90 E5        30.04F
NEBRASKA CITY  CLOUDY    66  66 100 CALM      30.02F
BEATRICE       CLOUDY    68  66  95 SE6       30.03F
FALLS CITY     FOG       65  65 100 CALM      30.02F VSB 1/2

...NORTHERN KANSAS...

CITY           SKY/WX    TMP DP  RH WIND       PRES   REMARKS
GOODLAND       CLOUDY    53  51  93 SE7       30.09R
HILL CITY      CLOUDY    60  58  92 SE6       30.07S
SMITH CENTER   CLOUDY    63  59  88 N7        30.07R
BELOIT         PTCLDY    64  63  94 CALM      30.02R
HAYS           CLOUDY    64  52  63 N17G24    30.09R
RUSSELL        MOCLDY    66  65  96 NE6       30.04R
CONCORDIA      CLOUDY    66  64  93 SE5       30.02F
SALINA         MOCLDY    73  67  81 E6        30.02S
TOPEKA         MOCLDY    71  68  90 E3        30.04R



USA.gov is the U.S. government's official web portal to all federal, state and local government web resources and services.